www.pogodaiklimat.ru

Погода и климат >> Архив погоды >> Чили >> Антофагаста


ПОГОДА в Антофагасте

  • Прогноз погоды в Антофагасте
  • Монитор погоды в Антофагасте

АРХИВ ПОГОДЫ в Антофагасте

Время (UTC), дата Ветер
(напр.,м/с)
 
Видим.   Явления Облачность Т
(С)
Тd
(С)
f
(%)
Тe
(С)
Тes
(С)
Комфортность P
(гПа)
Po
(гПа)
Тmin
(С)
Tmax
(С)
R
(мм)
R24
(мм)
S
(см)
06 9.01 Ю 4 20 км 8/8 210 м
[Sc]
+18.1 +15.7 86 +18 +18 1016.6 1000.3
09 9.01 Ю 3 20 км 9/9 150 м
[Sc]
+17.8 +15.5 86 +18 +18 1016.4 1000.1
12 9.01 Ю 2 20 км 5/5 270 м
[Sc]
+18.8 +15.3 80 +20 +22 1017.6 1001.3 +17.3
15 9.01 ЮЗ 5 20 км 4/3 700 м
[Sc]
+20.8 +13.8 64 +23 +30 комфорт 1017.0 1000.8
18 9.01 Ю 8 25 км 4/4 360 м
[Sc]
+21.1 +14.6 66 +24 +26 комфорт 1016.0 999.8
21 9.01 ЮЗ 7 25 км 3/3 300 м
[Sc]
+20.1 +14.8 72 +22 +23 комфорт 1014.8 998.6
00 10.01 Ю 4 20 км 3/3 330 м
[Sc]
+18.8 +14.9 78 +20 +20 1015.7 999.4 +22.2
03 10.01 Ю 4 20 км 9/9 270 м
[Sc]
+18.4 +14.9 80 +19 +19 1016.4 1000.1
06 10.01 Ю 2 20 км 3/3 300 м
[Sc]
+17.3 +14.6 84 +18 +18 1014.5 998.2
09 10.01 С 1 20 км 8/8 270 м
[Sc]
+17.5 +14.6 83 +19 +19 1014.1 997.8
12 10.01 Ю 3 15 км 6/6 270 м
[Sc]
+18.7 +15.2 80 +20 +21 1015.5 999.2 +17.3
15 10.01 ЮЗ 4 15 км 4/4 400 м
[Sc]
+20.9 +13.9 64 +24 +31 комфорт 1015.1 998.9
18 10.01 Ю 6 30 км 3/3 1300 м
[Sc]
+21.3 +12.8 58 +24 +29 комфорт 1013.8 997.7
21 10.01 Ю 6 25 км 3/3 1080 м
[Sc]
+21.5 +12.5 57 +24 +26 комфорт 1012.4 996.3
00 11.01 Ю 3 30 км 1/1 1500 м
[Sc]
+20.7 +12.5 59 +23 +23 комфорт 1014.1 997.9 +22.9
03 11.01 С 2 20 км ясно +19.8 +13.8 68 +22 +22 комфорт 1016.4 1000.2
06 11.01 С 2 25 км ясно +19.4 +10.0 55 +21 +21 комфорт 1016.3 1000.1
09 11.01 СВ 1 25 км ясно +18.2 +10.6 61 +19 +19 1016.3 1000.0
12 11.01 ЮЗ 1 10 км 4/0
[Ci fib]
+20.5 +13.6 65 +24 +29 комфорт 1017.1 1000.9 +16.1
15 11.01 Ю 6 10 км 3/0
[Ci fib]
+22.1 +13.8 59 +25 +32 комфорт 1017.2 1001.1
18 11.01 Ю 6 10 км 4/3 900 м
[Sc Ci fib]
+21.7 +14.9 65 +25 +30 комфорт 1016.5 1000.4
21 11.01 Ю 5 10 км 3/3 900 м
[Sc]
+22.0 +13.5 59 +25 +27 комфорт 1015.0 998.9
00 12.01 Ю 3 10 км 3/3 900 м
[Sc Ci fib]
+20.7 +13.3 63 +24 +24 комфорт 1016.3 1000.1 +23.2
03 12.01 Ю 2 10 км 1/1 900 м
[Sc]
+18.9 +14.6 76 +21 +21 комфорт 1018.1 1001.8
06 12.01 ЮВ 1 10 км ясно +18.5 +14.6 78 +21 +21 комфорт 1016.9 1000.6
09 12.01 Ю 1 10 км ясно +18.0 +14.2 78 +20 +20 1016.6 1000.3
12 12.01 Ю 3 10 км 4/4 330 м
[Sc]
+18.9 +15.2 79 +20 +22 1017.1 1000.8 +17.3
15 12.01 ЮЗ 7 10 км 1/1 300 м
[Sc]
+20.2 +14.4 69 +22 +26 комфорт 1016.7 1000.5
18 12.01 Ю 7 10 км 1/1 360 м
[Sc Ci fib]
+20.8 +13.8 64 +23 +28 комфорт 1016.0 999.8
21 12.01 Ю 8 10 км 4/3 420 м
[Sc Ci fib]
+20.7 +13.7 64 +23 +24 комфорт 1014.8 998.6
00 13.01 Ю 6 10 км 8/8 270 м
[Sc]
+18.6 +14.5 77 +19 +19 1016.0 999.7 +21.6
03 13.01 ЮЗ 5 10 км 3/3 270 м
[Sc]
+17.7 +14.6 82 +17 +17 1017.0 1000.7
06 13.01 ЮЗ 5 10 км 4/4 300 м
[Sc]
+17.3 +14.6 84 +17 +17 1015.9 999.6
09 13.01 Ю 1 10 км 6/6 180 м
[St]
+16.7 +14.4 86 +18 +18 1015.1 998.8
12 13.01 ЮЗ 3 20 км 1/1 600 м
[Sc]
+18.1 +13.5 74 +19 +22 1015.9 999.6 +16.5
15 13.01 Ю 6 20 км 1/1 800 м
[Sc]
+20.2 +13.0 63 +22 +29 комфорт 1016.1 999.9
18 13.01 Ю 8 20 км 3/3 800 м
[Sc]
+20.7 +13.3 63 +23 +26 комфорт 1015.2 999.0
21 13.01 Ю 8 20 км 6/6 800 м
[Sc]
+20.2 +13.3 65 +22 +22 комфорт 1013.5 997.3
00 14.01 Ю 6 10 км 6/6 270 м
[Sc]
+18.5 +14.6 78 +19 +19 1015.1 998.8 +21.7
03 14.01 Ю 4 10 км 4/4 270 м
[Sc]
+17.5 +14.4 82 +17 +17 1016.1 999.8
06 14.01 Ю 6 10 км 3/3 270 м
[Sc]
+17.1 +14.4 84 +16 +16 1014.8 998.5
09 14.01 Ю 5 10 км 4/4 360 м
[Sc]
+16.8 +13.6 81 +16 +16 1013.6 997.2
12 14.01 ЮЗ 5 15 км 8/3 400 м
[Sc Ci sp]
+17.9 +14.1 78 +17 +19 1014.6 998.3 +16.6
15 14.01 ЮЗ 7 15 км 9/3 420 м
[Sc Ci fib]
+19.4 +13.4 68 +20 +24 1014.5 998.3
18 14.01 Ю 8 20 км 9/1 540 м
[Sc Ci fib]
+20.3 +12.4 60 +22 +25 комфорт 1013.0 996.8
21 14.01 Ю 7 20 км 4/1 500 м
[Sc Ci fib]
+20.3 +13.1 63 +22 +23 комфорт 1011.4 995.3
00 15.01 Ю 4 20 км 3/3 450 м
[Sc]
+18.5 +13.6 73 +19 +19 1013.5 997.3 +21.5
03 15.01 Ю 4 20 км 6/6 660 м
[Sc]
+17.7 +13.5 76 +17 +17 1014.9 998.6
06 15.01 Ю 2 20 км 1/1 500 м
[Sc]
+17.0 +13.4 79 +18 +18 1014.9 998.6
09 15.01 СВ 2 20 км 6/6 840 м
[Sc]
+16.9 +12.7 76 +17 +17 1015.2 998.9
12 15.01 ЮЗ 1 20 км 8/8 600 м
[Sc]
+19.3 +12.9 66 +22 +23 комфорт 1015.8 999.6 +16.3
15 15.01 ЮЗ 5 20 км 6/1 1050 м
[Sc Ci fib]
+21.8 +11.8 53 +24 +32 комфорт 1015.6 999.5
18 15.01 Ю 7 25 км 6/1 1200 м
[Sc Ci fib]
+21.4 +11.8 54 +23 +28 комфорт 1014.7 998.6
21 15.01 Ю 7 25 км 4/1 400 м
[Sc Ci sp]
+20.3 +13.8 66 +22 +23 комфорт 1013.5 997.3
00 16.01 Ю 5 15 км 5/4 800 м
[Sc Ci fib]
+18.5 +14.0 75 +19 +19 1015.1 998.8 +22.3
03 16.01 Ю 4 20 км 3/1 600 м
[Sc Ci fib]
+17.9 +13.1 73 +18 +18 1016.6 1000.3

 

Местоположение метеостанции Антофагаста (Чили): широта -23.43 долгота -70.45 высота над уровнем моря 140 м.

В архиве по умолчанию представлена погода в Антофагасте за последнюю неделю. Архивные данные за месяц целиком и за предыдущие месяцы, начиная с января 2011 года, Вы можете получить, выбрав интересующий диапазон дат из раскрывающегося списка и нажав кнопку "Ввод!".


*Определитесь, кто Вы:
робот инопланетянин человек

Внимание! Время в таблицах - всемирное. Для получения местного времени необходимо прибавить поправку, которая равна -4 ч.

Смотрите также архив погоды в соседних городах и на ближайших метеорологических станциях:

Погода в Каламе (Чили) (192 км)
Погода в Икике (Чили) (324 км)
Погода в Кальдере (Чили) (426 км)
Погода в Ла-Кьяке (Аргентина) (519 км)
Погода в Сальте (Аргентина) (529 км)
Погода в Арике (Чили) (554 км)
Погода в Сан-Сальвадор-де-Жужуе (Аргентина) (556 км)
Погода в Такне (Перу) (599 км)
Погода в Тарихе (Боливия) (627 км)
Погода в Сан-Рамон-де-ла-Нуэва-Оране (Аргентина) (628 км)

Пояснения к столбцам:

Ветер - указаны скорость ветра в м/с - средняя за 10 мин, порывы в срок и между сроками (в фигурных скобках) и направление, откуда дует ветер: С - северный, СВ - северо-восточный, В - восточный, ЮВ - юго-восточный, Ю - южный, ЮЗ - юго-западный, З - западный, СЗ - северо-западный.
Видимость - горизонтальная дальность видимости в метрах или километрах. При видимости от 1 до 10 км при отсутствии осадков обычно наблюдается дымка, при ухудшении видимости до 1 км и менее - туман. В сухую погоду видимость может ухудшаться дымом, пылью или мглою.
Явления - указаны атмосферные явления, наблюдавшиеся в срок или в последний час перед сроком; фигурными скобками обозначены явления, наблюдавшиеся между сроками (за 1-3 часа до срока); квадратными скобками обозначены град или гололедные отложения с указанием их диаметра в мм.
Облачность - указаны через наклонную черту общая и нижняя облачность в баллах и высота нижней границы облаков в метрах; квадратными скобками обозначены формы облаков: Ci - перистые, Cs - перисто-слоистые, Cc - перисто-кучевые, Ac - высококучевые, As - высокослоистые, Sc - слоисто-кучевые, Ns - слоисто-дождевые, Cu - кучевые, Cb - кучево-дождевые. Подробнее классификацию облаков см. в Атласе облаков (PDF).
T - Температура воздуха - температура, измеренная на высоте 2 м над землей.
Td - Температура точки росы - температура, при понижении до которой содержащийся в воздухе водяной пар достигнет насыщения.
f - Относительная влажность воздуха - влажноcть воздуха, измеренная на высоте 2 м над землей.
Te - Эффективная температура - температура, которую ощущает одетый по сезону человек в тени. Характеристика душности погоды. При расчете учитывается влияние влажности воздуха и скорости ветра на теплоощущения человека.
Tes - Эффективная температура на солнце - температура, которую ощущает человек, с поправкой на солнечный нагрев. Характеристика знойности погоды. Зависит от высоты солнца над горизонтом, облачности и скорости ветра. Ночью, в пасмурную погоду, а также при ветре 12 м/с и более поправка равна нулю.
P - Атмосферное давление - приведенное к уровню моря атмосферное давление.
Po - Атмосферное давление - измеренное на уровне метеостанции атмосферное давление.
Tmin - Минимальная температура - минимум температуры воздуха на высоте 2 м над землей.
Tmax - Максимальная температура - максимум температуры воздуха на высоте 2 м над землей.
R - Количество осадков - Количество выпавших осадков за период времени, мм. При наведении курсора мыши на число - период времени, за который выпало указанное количество осадков.
R24 - Количество осадков - Количество выпавших осадков за 24 часа, мм.
S - Снежный покров - Высота снежного покрова, см. При наведении курсора мыши на число - состояние снежного покрова и степень покрытия местности в баллах.